CDT,Max TemperatureF,Mean TemperatureF,Min TemperatureF,Max Dew PointF,MeanDew PointF,Min DewpointF,Max Humidity, Mean Humidity, Min Humidity, Max Sea Level PressureIn, Mean Sea Level PressureIn, Min Sea Level PressureIn, Max VisibilityMiles, Mean VisibilityMiles, Min VisibilityMiles, Max Wind SpeedMPH, Mean Wind SpeedMPH, Max Gust SpeedMPH,PrecipitationIn, CloudCover, Events, WindDirDegrees
2013-10-1,86,76,66,67,65,62,90,74,49,30.11,30.05,30.01,10,10,10,8,4,,0.00,5,,113
2013-10-2,84,75,66,67,64,62,93,73,47,30.11,30.07,30.04,10,10,10,10,2,,0.00,2,,102
2013-10-3,86,77,68,68,65,62,87,74,51,30.10,30.05,30.01,10,10,10,7,2,,0.00,5,,114
2013-10-4,89,76,64,71,66,62,93,75,45,30.11,30.06,30.02,10,10,6,12,2,,0.00,2,Hail,137
2013-10-5,89,78,66,70,67,65,93,73,45,30.07,30.02,29.95,10,10,6,9,2,,0.00,1,,135
2013-10-6,81,74,68,72,69,64,100,89,72,29.95,29.90,29.83,10,8,0,10,3,,0.08,6,Fog-Rain,150
2013-10-7,75,67,57,70,57,51,94,76,44,29.98,29.90,29.86,10,9,2,16,9,23,0.21,3,Rain-Hail,342
2013-10-8,80,66,52,67,60,49,89,75,62,30.04,29.99,29.95,10,10,10,8,5,,0.00,4,,53
2013-10-9,71,66,59,61,59,56,93,83,70,30.15,30.09,30.04,10,10,10,10,6,,0.00,5,,76
2013-10-10,82,68,55,63,58,53,94,79,44,30.13,30.08,30.02,10,9,0,8,1,,0.00,3,Fog,360
2013-10-11,82,68,55,64,58,53,93,73,42,30.08,30.02,29.98,10,10,9,8,1,16,0.01,0,,349
2013-10-12,84,70,57,65,60,54,93,72,41,30.09,30.05,30.01,10,10,9,8,2,,0.00,0,,326
2013-10-13,84,72,59,62,59,56,90,71,41,30.17,30.12,30.08,10,10,7,9,3,,0.01,0,,15
2013-10-14,82,70,59,63,60,56,90,72,47,30.16,30.10,30.05,10,10,10,10,5,,0.00,1,,58
2013-10-15,78,68,59,63,60,56,93,80,54,30.10,30.06,30.00,10,10,5,7,3,,0.00,3,,81
2013-10-16,82,70,57,64,60,55,94,78,49,30.04,29.99,29.93,10,9,1,6,1,,0.01,2,,178
2013-10-17,78,71,64,72,67,62,94,89,74,29.97,29.93,29.90,10,8,1,13,5,17,0.23,7,Rain,301
2013-10-18,77,70,62,62,59,56,93,77,48,30.04,29.98,29.93,10,10,10,7,4,,0.04,5,Rain,350
2013-10-19,66,62,55,61,57,53,94,86,70,30.01,29.97,29.93,10,10,6,10,2,,0.06,5,Rain,346
2013-10-20,72,62,51,55,52,49,100,82,47,30.07,30.03,29.99,10,8,1,7,3,,0.01,2,,358
2013-10-21,71,60,50,59,54,47,93,78,55,30.09,30.03,29.99,10,10,10,5,1,,0.00,2,,44
2013-10-22,78,70,57,59,55,50,90,68,37,30.00,29.94,29.87,10,10,9,7,3,,0.00,4,,326
2013-10-23,69,58,48,52,42,33,86,60,26,30.13,30.02,29.93,10,10,10,17,7,23,0.00,0,,321
2013-10-24,75,58,41,50,43,38,89,64,31,30.23,30.17,30.12,10,10,10,7,3,,0.00,0,,319
2013-10-25,62,50,39,48,34,24,83,56,23,30.41,30.33,30.21,10,10,10,13,7,22,0.00,0,,4
2013-10-26,70,52,34,44,34,28,89,61,23,30.31,30.25,30.17,10,10,10,6,1,,0.00,0,Hail,321
2013-10-27,73,58,42,56,46,39,90,71,38,30.17,30.13,30.09,10,10,9,5,1,,0.00,1,,217
2013-10-28,78,64,51,58,53,48,93,74,42,30.23,30.18,30.12,10,10,9,6,1,,0.00,4,Rain,220
2013-10-29,80,66,51,59,54,48,93,71,39,30.29,30.23,30.19,10,10,8,7,1,,0.00,0,,139
2013-10-30,80,66,53,60,55,51,93,75,45,30.26,30.19,30.12,10,10,8,10,1,,0.00,0,,177
2013-10-31,80,68,57,69,64,55,94,84,64,30.11,29.98,29.85,10,10,5,14,5,20,0.00,4,Rain,170